| time (UTC) | temp F | wind direction | speed MPH | gust MPH | rain 1hr in | rain 24hr in | rain mn in | humidity % | barometer mb |
| 20260509161121 | 88 | 10 | 4.0 | 8.0 | 0.00 | 0.00 | 0.00 | 17 | 1010.1 |
| 20260509160121 | 87 | 4 | 5.0 | 10.0 | 0.00 | 0.00 | 0.00 | 17 | 1010.1 |
| 20260509155121 | 87 | 9 | 5.0 | 10.0 | 0.00 | 0.00 | 0.00 | 18 | 1010.2 |
| 20260509154122 | 86 | 21 | 6.0 | 10.0 | 0.00 | 0.00 | 0.00 | 18 | 1010.2 |
| 20260509153142 | 86 | 13 | 5.0 | 8.0 | 0.00 | 0.00 | 0.00 | 19 | 1010.2 |
| 20260509152121 | 85 | 9 | 5.0 | 9.0 | 0.00 | 0.00 | 0.00 | 19 | 1010.2 |
| 20260509151143 | 84 | 6 | 6.0 | 11.0 | 0.00 | 0.00 | 0.00 | 20 | 1010.1 |
| 20260509150121 | 83 | 21 | 4.0 | 8.0 | 0.00 | 0.00 | 0.00 | 20 | 1010.2 |
| 20260509145121 | 83 | 3 | 5.0 | 10.0 | 0.00 | 0.00 | 0.00 | 21 | 1010.2 |
| 20260509144121 | 82 | 12 | 5.0 | 11.0 | 0.00 | 0.00 | 0.00 | 21 | 1010.2 |
| 20260509143143 | 81 | 13 | 4.0 | 8.0 | 0.00 | 0.00 | 0.00 | 21 | 1010.1 |
| 20260509142121 | 81 | 0 | 2.0 | 5.0 | 0.00 | 0.00 | 0.00 | 22 | 1010.1 |
| 20260509141143 | 80 | 6 | 1.0 | 2.0 | 0.00 | 0.00 | 0.00 | 23 | 1010.1 |
| 20260509140121 | 79 | 21 | 2.0 | 4.0 | 0.00 | 0.00 | 0.00 | 23 | 1010.0 |
| 20260509135121 | 77 | 3 | 2.0 | 4.0 | 0.00 | 0.00 | 0.00 | 24 | 1009.8 |
| 20260509134123 | 76 | 360 | 1.0 | 2.0 | 0.00 | 0.00 | 0.00 | 25 | 1009.8 |
| 20260509133121 | 74 | 24 | 1.0 | 2.0 | 0.00 | 0.00 | 0.00 | 25 | 1009.7 |
| 20260509132121 | 72 | 11 | 2.0 | 3.0 | 0.00 | 0.00 | 0.00 | 26 | 1009.6 |
| 20260509131122 | 71 | 36 | 3.0 | 3.0 | 0.00 | 0.00 | 0.00 | 26 | 1009.5 |
| 20260509130121 | 70 | 12 | 3.0 | 5.0 | 0.00 | 0.00 | 0.00 | 26 | 1009.4 |
| 20260509125122 | 69 | 4 | 2.0 | 3.0 | 0.00 | 0.00 | 0.00 | 26 | 1009.3 |
| 20260509124121 | 69 | 15 | 3.0 | 4.0 | 0.00 | 0.00 | 0.00 | 26 | 1009.2 |
| 20260509123122 | 68 | 52 | 4.0 | 5.0 | 0.00 | 0.00 | 0.00 | 28 | 1008.9 |
| 20260509122122 | 67 | 12 | 2.0 | 4.0 | 0.00 | 0.00 | 0.00 | 29 | 1008.7 |
| 20260509121122 | 67 | 360 | 2.0 | 3.0 | 0.00 | 0.00 | 0.00 | 28 | 1008.7 |
| 20260509120121 | 67 | 360 | 2.0 | 3.0 | 0.00 | 0.00 | 0.00 | 28 | 1008.6 |
| 20260509115121 | 67 | 360 | 2.0 | 3.0 | 0.00 | 0.00 | 0.00 | 29 | 1008.6 |
| 20260509114121 | 67 | 360 | 2.0 | 4.0 | 0.00 | 0.00 | 0.00 | 29 | 1008.5 |
| 20260509113122 | 66 | 2 | 2.0 | 3.0 | 0.00 | 0.00 | 0.00 | 29 | 1008.4 |
| 20260509112121 | 67 | 360 | 0.0 | 1.0 | 0.00 | 0.00 | 0.00 | 28 | 1008.4 |
| 20260509111121 | 67 | 1 | 1.0 | 3.0 | 0.00 | 0.00 | 0.00 | 28 | 1008.3 |
| 20260509110121 | 67 | 22 | 2.0 | 3.0 | 0.00 | 0.00 | 0.00 | 27 | 1008.3 |
| 20260509105122 | 67 | 18 | 2.0 | 3.0 | 0.00 | 0.00 | 0.00 | 27 | 1008.3 |
| 20260509104121 | 67 | 31 | 2.0 | 4.0 | 0.00 | 0.00 | 0.00 | 26 | 1008.3 |
| 20260509103122 | 67 | 2 | 3.0 | 4.0 | 0.00 | 0.00 | 0.00 | 27 | 1008.3 |
| 20260509102143 | 67 | 360 | 2.0 | 3.0 | 0.00 | 0.00 | 0.00 | 27 | 1008.1 |
| 20260509101122 | 68 | 360 | 1.0 | 3.0 | 0.00 | 0.00 | 0.00 | 27 | 1008.2 |
| 20260509100121 | 68 | 28 | 2.0 | 4.0 | 0.00 | 0.00 | 0.00 | 28 | 1008.2 |
| 20260509095142 | 67 | 49 | 1.0 | 2.0 | 0.00 | 0.00 | 0.00 | 28 | 1008.2 |
| 20260509094143 | 67 | 10 | 2.0 | 2.0 | 0.00 | 0.00 | 0.00 | 28 | 1008.2 |
| 20260509093142 | 68 | 2 | 1.0 | 2.0 | 0.00 | 0.00 | 0.00 | 28 | 1008.4 |
| 20260509092122 | 69 | 9 | 2.0 | 2.0 | 0.00 | 0.00 | 0.00 | 27 | 1008.3 |
| 20260509091121 | 70 | 8 | 2.0 | 4.0 | 0.00 | 0.00 | 0.00 | 27 | 1008.4 |
| 20260509090123 | 69 | 67 | 1.0 | 2.0 | 0.00 | 0.00 | 0.00 | 26 | 1008.3 |
| 20260509085122 | 70 | 67 | 1.0 | 2.0 | 0.00 | 0.00 | 0.00 | 25 | 1008.3 |
| 20260509084123 | 70 | 68 | 2.0 | 3.0 | 0.00 | 0.00 | 0.00 | 26 | 1008.2 |
| 20260509083122 | 70 | 67 | 2.0 | 3.0 | 0.00 | 0.00 | 0.00 | 25 | 1008.2 |
| 20260509082121 | 71 | 64 | 2.0 | 3.0 | 0.00 | 0.00 | 0.00 | 24 | 1008.2 |
| 20260509081121 | 71 | 17 | 3.0 | 4.0 | 0.00 | 0.00 | 0.00 | 25 | 1008.1 |
| 20260509080122 | 72 | 360 | 1.0 | 2.0 | 0.00 | 0.00 | 0.00 | 25 | 1008.1 |
| 20260509075121 | 73 | 59 | 3.0 | 4.0 | 0.00 | 0.00 | 0.00 | 25 | 1008.1 |
| 20260509074122 | 74 | 360 | 3.0 | 4.0 | 0.00 | 0.00 | 0.00 | 24 | 1008.2 |
| 20260509073122 | 74 | 360 | 3.0 | 4.0 | 0.00 | 0.00 | 0.00 | 24 | 1008.2 |
| 20260509072122 | 75 | 360 | 3.0 | 4.0 | 0.00 | 0.00 | 0.00 | 23 | 1008.2 |
| 20260509071122 | 76 | 15 | 3.0 | 4.0 | 0.00 | 0.00 | 0.00 | 23 | 1008.3 |
| 20260509070121 | 77 | 3 | 2.0 | 4.0 | 0.00 | 0.00 | 0.00 | 22 | 1008.2 |
| 20260509065121 | 77 | 1 | 2.0 | 4.0 | 0.00 | 0.00 | 0.00 | 22 | 1008.1 |
| 20260509064123 | 76 | 1 | 2.0 | 5.0 | 0.00 | 0.00 | 0.00 | 22 | 1008.1 |
| 20260509063123 | 76 | 8 | 4.0 | 6.0 | 0.00 | 0.00 | 0.00 | 22 | 1008.1 |
| 20260509062122 | 75 | 38 | 3.0 | 4.0 | 0.00 | 0.00 | 0.00 | 22 | 1008.0 |
| 20260509061143 | 76 | 0 | 3.0 | 4.0 | 0.00 | 0.00 | 0.00 | 22 | 1008.1 |
| 20260509060122 | 76 | 3 | 4.0 | 5.0 | 0.00 | 0.00 | 0.00 | 21 | 1008.0 |
| 20260509055122 | 76 | 0 | 3.0 | 4.0 | 0.00 | 0.00 | 0.00 | 22 | 1008.0 |
| 20260509054121 | 75 | 21 | 3.0 | 4.0 | 0.00 | 0.00 | 0.00 | 21 | 1007.9 |
| 20260509053122 | 76 | 28 | 2.0 | 3.0 | 0.00 | 0.00 | 0.00 | 21 | 1008.0 |
| 20260509052122 | 76 | 16 | 2.0 | 3.0 | 0.00 | 0.00 | 0.00 | 22 | 1007.9 |
| 20260509051122 | 77 | 7 | 3.0 | 4.0 | 0.00 | 0.00 | 0.00 | 21 | 1008.0 |
| 20260509050122 | 77 | 1 | 3.0 | 4.0 | 0.00 | 0.00 | 0.00 | 20 | 1007.9 |
| 20260509045122 | 78 | 2 | 2.0 | 3.0 | 0.00 | 0.00 | 0.00 | 20 | 1007.9 |
| 20260509044122 | 78 | 22 | 1.0 | 2.0 | 0.00 | 0.00 | 0.00 | 21 | 1007.7 |
| 20260509043122 | 79 | 360 | 0.0 | 2.0 | 0.00 | 0.00 | 0.00 | 20 | 1007.8 |
| 20260509042122 | 80 | 9 | 2.0 | 4.0 | 0.00 | 0.00 | 0.00 | 19 | 1007.7 |
| 20260509041121 | 80 | 13 | 3.0 | 4.0 | 0.00 | 0.00 | 0.00 | 19 | 1007.5 |
| 20260509040122 | 81 | 10 | 3.0 | 4.0 | 0.00 | 0.00 | 0.00 | 19 | 1007.3 |
| 20260509035122 | 81 | 360 | 3.0 | 4.0 | 0.00 | 0.00 | 0.00 | 19 | 1007.1 |
| 20260509034144 | 81 | 355 | 3.0 | 4.0 | 0.00 | 0.00 | 0.00 | 18 | 1007.0 |
| 20260509033122 | 82 | 357 | 3.0 | 4.0 | 0.00 | 0.00 | 0.00 | 18 | 1006.9 |
| 20260509032122 | 83 | 360 | 3.0 | 4.0 | 0.00 | 0.00 | 0.00 | 18 | 1007.0 |
| 20260509031122 | 85 | 360 | 3.0 | 4.0 | 0.00 | 0.00 | 0.00 | 17 | 1006.8 |
| 20260509030122 | 86 | 360 | 0.0 | 1.0 | 0.00 | 0.00 | 0.00 | 17 | 1006.7 |
| 20260509025122 | 90 | 352 | 1.0 | 3.0 | 0.00 | 0.00 | 0.00 | 15 | 1006.4 |
| 20260509024122 | 91 | 359 | 2.0 | 4.0 | 0.00 | 0.00 | 0.00 | 14 | 1006.4 |
| 20260509023122 | 92 | 353 | 3.0 | 5.0 | 0.00 | 0.00 | 0.00 | 14 | 1006.2 |
| 20260509022122 | 93 | 360 | 3.0 | 5.0 | 0.00 | 0.00 | 0.00 | 13 | 1006.3 |
| 20260509021122 | 93 | 350 | 3.0 | 6.0 | 0.00 | 0.00 | 0.00 | 13 | 1006.0 |
| 20260509015122 | 95 | 360 | 8.0 | 8.0 | 0.00 | 0.00 | 0.00 | 13 | 1006.2 |
| 20260509014122 | 95 | 360 | 8.0 | 13.0 | 0.00 | 0.00 | 0.00 | 13 | 1006.2 |
| 20260509013122 | 95 | 360 | 7.0 | 13.0 | 0.00 | 0.00 | 0.00 | 13 | 1006.2 |
| 20260509012123 | 95 | 355 | 8.0 | 13.0 | 0.00 | 0.00 | 0.00 | 13 | 1006.2 |
| 20260509011122 | 96 | 360 | 7.0 | 14.0 | 0.00 | 0.00 | 0.00 | 13 | 1006.3 |
| 20260509010143 | 96 | 360 | 7.0 | 12.0 | 0.00 | 0.00 | 0.00 | 12 | 1006.2 |
| 20260509005122 | 96 | 360 | 8.0 | 15.0 | 0.00 | 0.00 | 0.00 | 13 | 1006.2 |
| 20260509004122 | 96 | 358 | 10.0 | 16.0 | 0.00 | 0.00 | 0.00 | 13 | 1006.4 |
| 20260509003122 | 96 | 360 | 9.0 | 14.0 | 0.00 | 0.00 | 0.00 | 12 | 1006.5 |
| 20260509002122 | 97 | 359 | 9.0 | 15.0 | 0.00 | 0.00 | 0.00 | 13 | 1006.5 |
| 20260509001122 | 97 | 360 | 9.0 | 16.0 | 0.00 | 0.00 | 0.00 | 12 | 1006.7 |
| 20260509000122 | 97 | 359 | 9.0 | 16.0 | 0.00 | 0.00 | 0.00 | 11 | 1006.7 |
| 20260508235122 | 97 | 356 | 8.0 | 14.0 | 0.00 | 0.00 | 0.00 | 13 | 1006.8 |
| 20260508234143 | 97 | 358 | 9.0 | 17.0 | 0.00 | 0.00 | 0.00 | 13 | 1007.0 |
| 20260508233122 | 97 | 360 | 10.0 | 15.0 | 0.00 | 0.00 | 0.00 | 11 | 1007.1 |
| 20260508232122 | 97 | 359 | 12.0 | 18.0 | 0.00 | 0.00 | 0.00 | 12 | 1007.0 |
| 20260508231122 | 97 | 359 | 11.0 | 17.0 | 0.00 | 0.00 | 0.00 | 12 | 1006.9 |
| 20260508230144 | 97 | 360 | 8.0 | 15.0 | 0.00 | 0.00 | 0.00 | 11 | 1007.1 |
| 20260508225122 | 96 | 360 | 10.0 | 16.0 | 0.00 | 0.00 | 0.00 | 13 | 1007.1 |
| 20260508224122 | 96 | 356 | 9.0 | 15.0 | 0.00 | 0.00 | 0.00 | 13 | 1007.2 |
| 20260508223122 | 96 | 360 | 9.0 | 16.0 | 0.00 | 0.00 | 0.00 | 13 | 1007.4 |
| 20260508222144 | 96 | 359 | 9.0 | 15.0 | 0.00 | 0.00 | 0.00 | 12 | 1007.6 |
| 20260508221123 | 97 | 360 | 8.0 | 13.0 | 0.00 | 0.00 | 0.00 | 12 | 1007.6 |
| 20260508220122 | 96 | 360 | 8.0 | 14.0 | 0.00 | 0.00 | 0.00 | 13 | 1007.6 |
| 20260508215122 | 95 | 358 | 9.0 | 20.0 | 0.00 | 0.00 | 0.00 | 13 | 1008.0 |
| 20260508214122 | 95 | 355 | 6.0 | 12.0 | 0.00 | 0.00 | 0.00 | 13 | 1008.1 |
| 20260508213143 | 95 | 359 | 8.0 | 20.0 | 0.00 | 0.00 | 0.00 | 13 | 1008.3 |
| 20260508212122 | 95 | 359 | 8.0 | 16.0 | 0.00 | 0.00 | 0.00 | 13 | 1008.5 |
| 20260508211122 | 95 | 359 | 6.0 | 12.0 | 0.00 | 0.00 | 0.00 | 13 | 1008.7 |
| 20260508210122 | 93 | 359 | 5.0 | 9.0 | 0.00 | 0.00 | 0.00 | 14 | 1009.0 |
| 20260508205122 | 93 | 352 | 5.0 | 8.0 | 0.00 | 0.00 | 0.00 | 13 | 1009.1 |
| 20260508204122 | 93 | 357 | 5.0 | 9.0 | 0.00 | 0.00 | 0.00 | 14 | 1009.1 |
| 20260508203121 | 92 | 360 | 6.0 | 12.0 | 0.00 | 0.00 | 0.00 | 14 | 1009.2 |
| 20260508202121 | 92 | 359 | 5.0 | 12.0 | 0.00 | 0.00 | 0.00 | 14 | 1009.4 |
| 20260508201121 | 92 | 359 | 7.0 | 14.0 | 0.00 | 0.00 | 0.00 | 15 | 1009.5 |
| 20260508200121 | 91 | 359 | 7.0 | 13.0 | 0.00 | 0.00 | 0.00 | 14 | 1009.8 |
| 20260508195121 | 91 | 359 | 7.0 | 13.0 | 0.00 | 0.00 | 0.00 | 15 | 1009.9 |
| 20260508194121 | 91 | 359 | 7.0 | 12.0 | 0.00 | 0.00 | 0.00 | 15 | 1010.1 |
| 20260508193121 | 90 | 357 | 6.0 | 12.0 | 0.00 | 0.00 | 0.00 | 15 | 1010.2 |
| 20260508192142 | 90 | 360 | 6.0 | 10.0 | 0.00 | 0.00 | 0.00 | 16 | 1010.3 |
| 20260508191122 | 89 | 360 | 5.0 | 10.0 | 0.00 | 0.00 | 0.00 | 16 | 1010.5 |
| 20260508190121 | 89 | 360 | 5.0 | 10.0 | 0.00 | 0.00 | 0.00 | 16 | 1010.7 |
| 20260508185121 | 90 | 359 | 5.0 | 10.0 | 0.00 | 0.00 | 0.00 | 15 | 1010.7 |
| 20260508184121 | 88 | 356 | 2.0 | 5.0 | 0.00 | 0.00 | 0.00 | 17 | 1010.8 |
| 20260508183121 | 88 | 356 | 6.0 | 10.0 | 0.00 | 0.00 | 0.00 | 16 | 1011.0 |
| 20260508182121 | 87 | 360 | 4.0 | 10.0 | 0.00 | 0.00 | 0.00 | 17 | 1011.0 |
| 20260508181121 | 86 | 1 | 5.0 | 11.0 | 0.00 | 0.00 | 0.00 | 18 | 1011.2 |
| 20260508180121 | 87 | 1 | 5.0 | 9.0 | 0.00 | 0.00 | 0.00 | 18 | 1011.3 |
| 20260508175121 | 86 | 2 | 5.0 | 9.0 | 0.00 | 0.00 | 0.00 | 18 | 1011.3 |
| 20260508174121 | 85 | 358 | 6.0 | 12.0 | 0.00 | 0.00 | 0.00 | 19 | 1011.5 |
| 20260508173121 | 85 | 25 | 1.0 | 5.0 | 0.00 | 0.00 | 0.00 | 19 | 1011.6 |
| 20260508172143 | 85 | 1 | 7.0 | 10.0 | 0.00 | 0.00 | 0.00 | 19 | 1011.6 |
| 20260508171121 | 85 | 0 | 6.0 | 10.0 | 0.00 | 0.00 | 0.00 | 19 | 1011.8 |
| 20260508170121 | 84 | 1 | 7.0 | 11.0 | 0.00 | 0.00 | 0.00 | 20 | 1011.8 |
| 20260508165121 | 85 | 3 | 5.0 | 10.0 | 0.00 | 0.00 | 0.00 | 19 | 1011.7 |
| 20260508164121 | 84 | 1 | 7.0 | 12.0 | 0.00 | 0.00 | 0.00 | 20 | 1011.8 |
| 20260508163121 | 84 | 8 | 5.0 | 9.0 | 0.00 | 0.00 | 0.00 | 20 | 1011.9 |
| 20260508162121 | 83 | 4 | 8.0 | 13.0 | 0.00 | 0.00 | 0.00 | 20 | 1011.9 |